Flag for Canada

Past Weather in New Chelsea-New Melbourne-Brownsdale-Sibley's Cove-Lead Cove, Newfoundland and Labrador, Canada — Yesterday and Last 2 Weeks

Now
46 °F

Passing clouds.


Feels Like: 39 °F
Forecast: 49 / 43 °F
Wind: 17 mph from West

Location: St. John's

Current Time: Oct 20, 2019 at 3:43:22 am

Latest Report: Oct 20, 2019 at 3:04 am


Visibility: 15 mi

Pressure: 29.56 "Hg

Humidity: 93%

Dew Point: 45 °F

Location of New Chelsea-New Melbourne-Brownsdale-Sibley's Cove-Lead CoveLocation

Past Weather in New Chelsea-New Melbourne-Brownsdale-Sibley's Cove-Lead Cove — Graph

°F

New Chelsea-New Melbourne-Brownsdale-Sibley's Cove-Lead Cove Temperature Yesterday

Maximum temperature yesterday: 61 °F (at 11:30 am)
Minimum temperature yesterday: 45 °F (at 9:30 pm)
Average temperature yesterday: 54 °F

High & Low Weather Summary for the Past Weeks

 TemperatureHumidityPressure
High68 °F (Oct 13, 1:30 pm)100% (Oct 7, 7:51 pm)30.59 "Hg (Oct 7, 7:51 pm)
Low36 °F (Oct 5, 2:30 am)51% (Oct 9, 4:30 pm)29.55 "Hg (Oct 20, 1:30 am)
Average48 °F88%30.05 "Hg
* Reported Oct 5 2:30 am — Oct 20 2:30 am, New Chelsea-New Melbourne-Brownsdale-Sibley's Cove-Lead Cove. Weather by CustomWeather, © 2019

Note: Actual official high and low records may vary slightly from our data, if they occured in-between our weather recording intervals... More about our weather records

Advertising

New Chelsea-New Melbourne-Brownsdale-Sibley's Cove-Lead Cove Weather History for the Previous 24 Hours

Scroll right to see more
 ConditionsComfort  
Time TempWeatherWind HumidityBarometerVisibility
2:30 am
Sun, Oct 20
46 °FDrizzle. Low clouds.21 mph100%29.55 "Hg15 mi
1:30 am46 °FDrizzle. Overcast.20 mph93%29.55 "Hg15 mi
12:30 am46 °FDrizzle. Low clouds.21 mph93%29.55 "Hg15 mi
12:13 am46 °FOvercast.18 mph93%29.55 "Hg15 mi
11:51 pm
Sat, Oct 19
46 °FLow clouds.17 mph93%29.55 "Hg15 mi
11:01 pm46 °FOvercast.16 mph87%29.57 "Hg15 mi
10:30 pm45 °FPassing clouds.16 mph93%29.58 "Hg15 mi
9:30 pm45 °FClear.12 mph93%29.59 "Hg15 mi
8:30 pm46 °FClear.8 mph87%29.59 "Hg15 mi
7:30 pm48 °FPassing clouds.10 mph87%29.59 "Hg15 mi
6:30 pm52 °FPartly cloudy.9 mph82%29.58 "Hg15 mi
5:30 pm55 °FBroken clouds.15 mph67%29.58 "Hg15 mi
4:30 pm59 °FMostly cloudy.15 mph63%29.57 "Hg15 mi
3:30 pm59 °FPartly sunny.10 mph72%29.58 "Hg15 mi
2:30 pm61 °FPartly sunny.13 mph68%29.57 "Hg15 mi
1:30 pm61 °FPartly sunny.10 mph72%29.59 "Hg15 mi
12:30 pm61 °FPartly sunny.9 mph77%29.60 "Hg15 mi
11:30 am61 °FBroken clouds.9 mph83%29.62 "Hg15 mi
10:30 am57 °FPartly sunny.7 mph94%29.63 "Hg15 mi
9:30 am55 °FLow clouds.8 mph100%29.62 "Hg15 mi
8:50 am55 °FMostly cloudy.7 mph100%29.63 "Hg15 mi
8:30 am55 °FSprinkles. Mostly cloudy.5 mph100%29.63 "Hg12 mi
7:43 am55 °FFog.5 mph100%29.63 "Hg3 mi
7:30 am55 °FDrizzle. Fog.3 mph94%29.62 "Hg1 mi
6:46 am55 °FDrizzle. Fog.2 mph100%29.62 "Hg1 mi
5:44 am55 °FDrizzle. Fog.8 mph100%29.62 "Hg2 mi
5:30 am55 °FLow clouds.8 mph100%29.62 "Hg15 mi
4:50 am55 °FLow clouds.8 mph94%29.62 "Hg15 mi
4:30 am55 °FPartly cloudy.6 mph94%29.62 "Hg15 mi
3:30 am55 °FPassing clouds.5 mph94%29.62 "Hg15 mi
Weather by CustomWeather, © 2019

See weather overview